[[{"header":{"parameterUnit":"m.s-1","parameterCategory":1,"la1":30.2991,"la2":30.254,"lo1":-89.0895,"lo2":-89.0444,"dy":0.0017,"dx":0.0017,"nx":28,"ny":28,"refTime":"2025-04-18T09:00:00:Z","depth":0,"parameterNumber":2,"parameterNumberName":"U-component_of_WINDS"},"data":[0,0,0,0,0,0,0,0,0,0,0,0,0,0,0,0,0,0,0,0,0,0,0,0,0,0,0,0,0,0,0,0,0,0,0,0,0,0,0,0,0,0,0,0,0,0,0,0,0,0,0,0,0,0,0,0,0,0,-4.1273,-4.1274,0,-4.1395,-4.1396,-4.1398,-4.1377,-4.1375,-4.1372,-4.137,-4.1496,-4.1501,-4.1506,0,0,0,0,0,0,0,0,0,0,0,0,0,-4.1022,-4.1027,-4.1272,-4.1274,-4.1276,-4.1395,-4.1396,-4.1398,-4.1377,-4.1374,-4.1372,-4.1369,-4.1494,-4.1501,-4.1507,0,0,0,0,0,0,0,0,0,0,0,0,0,-4.1136,-4.1028,-4.1272,-4.1279,-4.1281,-4.1394,-4.1396,-4.1398,-4.1378,-4.1374,-4.1371,-4.1368,-4.1492,-4.15,-4.1508,-4.1621,0,0,-4.1532,-4.1536,0,0,0,0,0,0,0,0,-4.113,-4.1146,-4.1277,-4.1279,-4.1281,-4.1367,-4.1354,-4.1473,-4.1378,-4.1341,-4.137,-4.1367,-4.1456,-4.1467,-4.1497,-4.1627,-4.1633,-4.1533,-4.1538,-4.1541,-4.1544,0,0,0,0,0,0,0,-4.1122,-4.114,-4.1321,-4.1279,-4.1282,-4.1277,-4.129,-4.1377,-4.1415,-4.1344,-4.1343,-4.1358,-4.1456,-4.1489,-4.1499,-4.1635,-4.1533,-4.154,-4.1545,-4.1548,-4.1865,-4.1869,0,0,0,0,0,0,-4.1112,-4.1134,-4.1317,-4.1325,-4.1196,-4.1284,-4.1298,-4.1343,-4.1414,-4.1422,-4.136,-4.1356,-4.1477,-4.149,-4.1504,-4.1641,-4.1541,-4.1549,-4.1553,-4.1862,-4.1866,-4.187,0,0,0,0,0,0,-4.1107,-4.1128,-4.1312,-4.1229,-4.1252,-4.1292,-4.1342,-4.1347,-4.1379,-4.1426,-4.1433,-4.1386,-4.1475,-4.1492,-4.1592,-4.1645,-4.1552,-4.156,-4.1858,-4.1863,-4.1868,-4.1917,0,0,0,0,0,0,-4.1099,-4.1127,-4.117,-4.123,-4.1256,-4.1398,-4.1345,-4.1352,-4.1393,-4.1389,-4.1452,-4.146,-4.1474,-4.1581,-4.16,-4.1655,-4.1566,-4.1853,-4.186,-4.1867,-4.1911,-4.1924,-4.1935,0,0,0,0,0,-4.1091,-4.1179,-4.1172,-4.1194,-4.1311,-4.1401,-4.1417,-4.1431,-4.1398,-4.1441,-4.1472,-4.1458,-4.1637,-4.1591,-4.1613,-4.1671,-4.185,-4.1858,-4.1866,-4.1906,-4.1921,-4.1934,0,0,0,0,0,0,-4.1123,-4.1187,-4.118,-4.129,-4.1341,-4.1398,-4.1453,-4.1447,-4.1508,-4.1501,-4.1516,-4.1531,-4.1632,-4.1662,-4.161,-4.1785,-4.1739,-4.1752,-4.1761,-4.1776,-4.1788,-4.1778,-4.1573,0,0,0,0,0,-4.1143,-4.1211,-4.1263,-4.1355,-4.1381,-4.1413,-4.1453,-4.146,-4.1513,-4.1534,-4.1571,-4.1623,-4.1692,-4.1736,-4.1801,-4.1916,-4.193,-4.1967,-4.1978,-4.1988,-4.1998,-4.2062,-4.2079,-4.1897,-4.1897,-4.1897,0,0,-4.1185,-4.1228,-4.127,-4.1363,-4.1403,-4.1473,-4.1431,-4.1507,-4.1559,-4.1545,-4.1642,-4.1672,-4.1731,-4.1839,-4.1888,-4.1867,-4.2052,-4.1998,-4.2005,-4.2011,-4.2072,-4.2089,-4.2104,-4.1903,-4.1902,-4.1901,0,0,-4.1297,-4.1337,-4.1418,-4.1459,-4.152,-4.1541,-4.1561,-4.162,-4.1639,-4.1736,-4.1727,-4.179,-4.1907,-4.195,-4.1987,-4.2117,-4.2107,-4.2138,-4.2199,-4.2261,-4.2275,-4.2288,-4.2334,-4.235,-4.2149,-4.2149,-4.2149,0,-4.1341,-4.1446,-4.146,-4.1538,-4.1579,-4.157,-4.1653,-4.1692,-4.1772,-4.1801,-4.1775,-4.1922,-4.1962,-4.208,-4.2112,-4.2142,-4.2165,-4.213,-4.2272,-4.2285,-4.2297,-4.2341,-4.2358,-4.2153,-4.2152,-4.2152,-4.2152,0,-4.1498,-4.1571,-4.1629,-4.1706,-4.1754,-4.1834,-4.186,-4.1908,-4.1911,-4.1935,-4.2034,-4.2082,-4.2157,-4.2186,-4.2189,-4.2305,-4.2289,-4.2268,-4.2222,-4.2317,-4.2359,-4.2376,-4.2157,-4.2156,-4.2155,-4.2154,0,0,-4.1632,-4.1716,-4.1738,-4.1773,-4.184,-4.1897,-4.1977,-4.205,-4.209,-4.2146,-4.2213,-4.2313,-4.2294,-4.2337,-4.2346,-4.24,-4.25,-4.2372,-4.2373,-4.2393,-4.263,-4.2644,-4.2664,-4.2494,-4.2497,-4.25,-4.2624,0,-4.1749,-4.1889,-4.1905,-4.203,-4.2098,-4.2092,-4.2161,-4.2211,-4.2236,-4.2298,-4.2326,-4.2396,-4.2366,-4.2391,-4.2445,-4.2476,-4.2547,-4.2468,-4.2556,-4.2559,-4.254,-4.2686,-4.2701,-4.2816,-4.2641,-4.2644,-4.2646,0,-4.1905,-4.1965,-4.2096,-4.2155,-4.2185,-4.2247,-4.2315,-4.2375,-4.2431,-4.2446,-4.2494,-4.2496,-4.2579,-4.2531,-4.2645,-4.2591,-4.2629,-4.265,-4.2655,-4.2662,-4.2607,-4.2696,-4.2853,-4.287,-4.2672,-4.267,-4.2668,0,-4.1988,-4.2102,-4.2196,-4.2226,-4.2298,-4.2341,-4.2373,-4.2427,-4.247,-4.2531,-4.2559,-4.2629,-4.2667,-4.2721,-4.2742,-4.2705,-4.2856,-4.281,-4.287,-4.287,-4.2901,-4.2898,-4.3065,-4.2927,-4.2927,-4.2927,-4.2926,0,-4.2117,-4.2198,-4.2234,-4.2292,-4.2382,-4.2401,-4.249,-4.252,-4.2568,-4.2631,-4.2631,-4.2691,-4.2716,-4.278,-4.2798,-4.289,-4.2908,-4.2922,-4.2925,-4.2921,-4.2919,-4.2945,-4.2937,-4.2931,-4.293,-4.293,-4.2929,0,-4.2225,-4.2253,-4.2354,-4.2414,-4.2431,-4.2495,-4.2546,-4.2602,-4.2627,-4.2708,-4.2728,-4.2767,-4.2843,-4.287,-4.2962,-4.2974,-4.3081,-4.3078,-4.3062,-4.3062,-4.3121,-4.3115,-4.3309,-4.3335,-4.3181,-4.3183,-4.3184,0,-4.2304,-4.2366,-4.2433,-4.2475,-4.2509,-4.2577,-4.2622,-4.2643,-4.2689,-4.2759,-4.2807,-4.2882,-4.2943,-4.3064,-4.3101,-4.3172,-4.317,-4.3234,-4.3181,-4.3175,-4.3171,-4.3166,-4.3172,-4.3243,-4.3245,-4.3246,-4.3247,0,-4.2443,-4.2454,-4.2517,-4.2587,-4.264,-4.2695,-4.2749,-4.2784,-4.2813,-4.2866,-4.2943,-4.299,-4.3085,-4.3159,-4.3232,-4.3266,-4.3262,-4.3264,-4.3281,-4.3277,-4.3264,-4.3271,-4.3087,-4.3259,-4.3257,-4.3257,-4.3256,-4.3256,-4.2538,-4.2593,-4.2648,-4.272,-4.2763,-4.2813,-4.2869,-4.2901,-4.2966,-4.3044,-4.3053,-4.3136,-4.3193,-4.329,-4.3327,-4.3393,-4.3375,-4.3401,-4.3407,-4.3413,-4.3417,-4.3255,-4.3406,-4.3406,-4.3405,-4.3405,-4.3405,0,-4.2676,-4.2711,-4.2777,-4.2852,-4.2909,-4.2901,-4.296,-4.3008,-4.3081,-4.3134,-4.3194,-4.3283,-4.3356,-4.34,-4.3473,-4.3518,-4.3518,-4.3536,-4.3532,-4.354,-4.3428,-4.3405,-4.3535,-4.3535,-4.3535,-4.3535,-4.3535,-4.3535,-4.2754,-4.2846,-4.2864,-4.2978,-4.3013,-4.3094,-4.3129,-4.3176,-4.3218,-4.3318,-4.3378,-4.3407,-4.3456,-4.3533,-4.36,-4.3611,-4.3638,-4.3658,-4.3667,-4.3562,-4.3548,-4.3535,-4.3514,-4.3664,-4.3664,-4.3774,-4.3775,-4.3775]},{"header":{"parameterUnit":"m.s-1","parameterCategory":1,"la1":30.2991,"la2":30.254,"lo1":-89.0895,"lo2":-89.0444,"dy":0.0017,"dx":0.0017,"nx":28,"ny":28,"refTime":"2025-04-18T09:00:00:Z","depth":0,"parameterNumber":3,"parameterNumberName":"V-component_of_WINDS"},"data":[0,0,0,0,0,0,0,0,0,0,0,0,0,0,0,0,0,0,0,0,0,0,0,0,0,0,0,0,0,0,0,0,0,0,0,0,0,0,0,0,0,0,0,0,0,0,0,0,0,0,0,0,0,0,0,0,0,0,3.6932,3.6932,0,3.6942,3.6942,3.6942,3.6891,3.689,3.6888,3.6887,3.6895,3.6896,3.6898,0,0,0,0,0,0,0,0,0,0,0,0,0,3.6868,3.6869,3.6932,3.6932,3.6932,3.6942,3.6942,3.6942,3.6891,3.689,3.6888,3.6886,3.6894,3.6896,3.6898,0,0,0,0,0,0,0,0,0,0,0,0,0,3.6888,3.687,3.6932,3.6908,3.6906,3.6942,3.6942,3.6942,3.6892,3.6889,3.6887,3.6885,3.6894,3.6896,3.6898,3.6957,0,0,3.6906,3.6907,0,0,0,0,0,0,0,0,3.6887,3.6891,3.6912,3.691,3.6908,3.6913,3.6922,3.6947,3.6892,3.6897,3.6887,3.6884,3.6903,3.6904,3.6911,3.6958,3.6958,3.6906,3.6907,3.6908,3.6909,0,0,0,0,0,0,0,3.6886,3.689,3.6936,3.6912,3.691,3.6896,3.6897,3.6927,3.6912,3.6897,3.6893,3.6895,3.6901,3.6909,3.6911,3.6958,3.6906,3.6908,3.6909,3.691,3.7055,3.7057,0,0,0,0,0,0,3.6888,3.6889,3.6936,3.6936,3.6892,3.6899,3.69,3.6914,3.6912,3.6909,3.6897,3.6892,3.6906,3.6908,3.6911,3.698,3.6908,3.6911,3.6912,3.7052,3.7055,3.7058,0,0,0,0,0,0,3.6887,3.6893,3.6935,3.6912,3.6916,3.6903,3.6919,3.6915,3.6922,3.6912,3.6909,3.6907,3.6904,3.6907,3.6946,3.6979,3.6912,3.6914,3.7049,3.7053,3.7056,3.7119,0,0,0,0,0,0,3.6885,3.6892,3.6915,3.6913,3.6918,3.6971,3.6921,3.6917,3.6927,3.6921,3.6921,3.6919,3.6902,3.6943,3.6949,3.6981,3.6916,3.7046,3.7051,3.7055,3.7113,3.7124,3.7133,0,0,0,0,0,3.6883,3.6931,3.6916,3.6922,3.6946,3.6973,3.6976,3.6957,3.693,3.6952,3.6945,3.6919,3.6975,3.6948,3.6953,3.6987,3.7044,3.705,3.7055,3.7109,3.7122,3.7132,0,0,0,0,0,0,3.6936,3.6931,3.6914,3.6963,3.6969,3.6965,3.6992,3.6971,3.6985,3.6979,3.6954,3.6955,3.6998,3.6996,3.6966,3.7045,3.7005,3.7012,3.7044,3.7056,3.7065,3.7065,3.6918,0,0,0,0,0,3.6954,3.6978,3.6971,3.7015,3.7019,3.7006,3.7017,3.7002,3.7007,3.7009,3.7005,3.7011,3.703,3.7043,3.706,3.7113,3.7112,3.714,3.7149,3.7157,3.7163,3.7192,3.7204,3.7075,3.7075,3.7075,0,0,3.6991,3.699,3.7007,3.7026,3.7029,3.7054,3.7008,3.7036,3.7054,3.7013,3.705,3.7048,3.7052,3.7099,3.7119,3.7099,3.7199,3.7164,3.717,3.7172,3.7199,3.7211,3.7222,3.7079,3.7078,3.7078,0,0,3.707,3.7072,3.7109,3.7114,3.7119,3.711,3.7119,3.7118,3.7115,3.7152,3.7123,3.7144,3.7177,3.7181,3.7188,3.7271,3.7247,3.7277,3.7327,3.7355,3.7366,3.7374,3.7404,3.7415,3.7283,3.7283,3.7283,0,3.7114,3.7151,3.7131,3.7161,3.7171,3.7137,3.7174,3.7179,3.719,3.7197,3.7174,3.7216,3.7216,3.7264,3.7285,3.7291,3.7301,3.7277,3.7366,3.7374,3.7382,3.741,3.7422,3.7287,3.7287,3.7286,3.7286,0,3.7205,3.7231,3.726,3.7273,3.7286,3.732,3.7305,3.732,3.7305,3.7298,3.7336,3.7336,3.7352,3.7363,3.7347,3.7409,3.7396,3.737,3.7329,3.7399,3.7425,3.7435,3.7292,3.7291,3.729,3.7289,0,0,3.7317,3.732,3.7331,3.7336,3.7341,3.736,3.7393,3.741,3.7424,3.7432,3.7459,3.7488,3.7465,3.7473,3.7458,3.7483,3.7549,3.7453,3.7453,3.7471,3.7617,3.7636,3.7649,3.7533,3.7535,3.7536,3.7616,0,3.7395,3.7451,3.7435,3.7491,3.7515,3.7483,3.7512,3.7517,3.7512,3.7531,3.7525,3.7547,3.7514,3.7518,3.7542,3.7536,3.7577,3.753,3.7557,3.7558,3.7557,3.7662,3.7683,3.7758,3.7626,3.7628,3.7629,0,3.7493,3.7507,3.7566,3.7568,3.7577,3.7603,3.7618,3.7637,3.7642,3.7637,3.7646,3.7626,3.7658,3.7618,3.7661,3.7629,3.764,3.7638,3.7641,3.7642,3.7598,3.7667,3.7782,3.7793,3.7645,3.7644,3.7643,0,3.7569,3.7603,3.7643,3.7648,3.7651,3.767,3.7672,3.7676,3.7687,3.77,3.7708,3.7724,3.7733,3.7746,3.773,3.7703,3.7776,3.7735,3.7772,3.7773,3.7789,3.7788,3.7907,3.7796,3.7796,3.7796,3.7795,0,3.7657,3.7695,3.7677,3.7702,3.7743,3.7724,3.7765,3.7763,3.7767,3.779,3.7763,3.7786,3.7765,3.7785,3.7773,3.7811,3.7815,3.7812,3.7808,3.7814,3.7815,3.782,3.7815,3.7798,3.7798,3.7797,3.7797,0,3.7749,3.7739,3.7781,3.778,3.7781,3.7811,3.7811,3.7833,3.7827,3.7857,3.7863,3.7852,3.7875,3.7861,3.7884,3.7876,3.7926,3.7915,3.7924,3.7921,3.796,3.7956,3.8086,3.8102,3.7981,3.7982,3.7983,0,3.7806,3.7835,3.7838,3.7853,3.7857,3.788,3.7892,3.7874,3.7888,3.7898,3.7919,3.794,3.7956,3.7993,3.7987,3.8005,3.7994,3.8039,3.7997,3.8002,3.7995,3.7994,3.7997,3.8047,3.8048,3.805,3.8051,0,3.7909,3.7903,3.7922,3.794,3.7956,3.7969,3.7979,3.7992,3.7975,3.7992,3.8015,3.8028,3.8052,3.8073,3.8088,3.8089,3.8067,3.8064,3.8074,3.808,3.8084,3.8083,3.7947,3.8061,3.806,3.8059,3.8059,3.8058,3.7986,3.801,3.8016,3.8039,3.8045,3.8056,3.8077,3.8074,3.8094,3.8113,3.8101,3.8129,3.8134,3.8153,3.8157,3.8178,3.816,3.8174,3.8178,3.8181,3.8187,3.8081,3.8181,3.818,3.818,3.818,3.818,0,3.8087,3.809,3.8111,3.8128,3.8145,3.8124,3.8135,3.8151,3.8177,3.8184,3.8201,3.8228,3.8248,3.8244,3.8263,3.8281,3.8271,3.8286,3.8284,3.8285,3.8202,3.8192,3.8293,3.8293,3.8293,3.8293,3.8293,3.8293,3.8142,3.8182,3.8177,3.822,3.8222,3.825,3.8258,3.8268,3.8274,3.8306,3.8324,3.8321,3.8324,3.8343,3.8361,3.8359,3.8367,3.8386,3.838,3.8302,3.8291,3.828,3.8271,3.8387,3.8388,3.8462,3.8463,3.8463]}]]